logo tempoitalia

Diretta Meteo Kickapoo, Stati Uniti (USA)lunedì 31 agosto ore 01:35

Mappa
Sereno 29 °C Sereno 24 Ore: T.min 24 T.max 39
Ponente Sud/Sud-Est Km/h 16.7 Punto di rugiada: 14 °C Umidità: 39% Visibilità: 10 Km
Il sole sorge alle: 07:07 Il sole tramonta alle: 20:01
31 Agosto 2026 01:35 tempo osservato: Sereno Sereno 29 39 1014 vento: Nord S/SE 16.7
31 Agosto 2026 01:15 tempo osservato: Sereno Sereno 30 37 1014 vento: Nord S/SE 20.3
31 Agosto 2026 00:55 tempo osservato: Sereno Sereno 30 37 1014 vento: Nord S 18.5
31 Agosto 2026 00:35 tempo osservato: Sereno Sereno 30 35 1014 vento: Nord S 16.7
31 Agosto 2026 00:15 tempo osservato: Sereno Sereno 30 35 1014 vento: Nord S/SE 18.5
30 Agosto 2026 23:55 tempo osservato: Sereno Sereno 30 35 1014 vento: Nord S/SE 16.7
30 Agosto 2026 23:35 tempo osservato: Sereno Sereno 30 35 1014 vento: Nord S/SE 20.3
30 Agosto 2026 23:15 tempo osservato: Sereno Sereno 30 35 1014 vento: Nord S/SE 20.3
30 Agosto 2026 22:55 tempo osservato: Sereno Sereno 31 33 1014 vento: Nord S/SE 22.2
30 Agosto 2026 22:35 tempo osservato: Sereno Sereno 32 31 1014 vento: Nord S/SE 20.3
30 Agosto 2026 22:15 tempo osservato: Sereno Sereno 32 31 1014 vento: Nord S/SE 20.3
30 Agosto 2026 21:55 tempo osservato: Sereno Sereno 32 31 1013 vento: Nord S/SE 20.3
30 Agosto 2026 21:35 tempo osservato: Sereno Sereno 33 29 1013 vento: Nord SE 16.7
30 Agosto 2026 21:15 tempo osservato: Sereno Sereno 33 29 1012 vento: Nord SE 16.7
30 Agosto 2026 20:55 tempo osservato: Sereno Sereno 33 29 1012 vento: Nord SE 14.8
30 Agosto 2026 20:40 tempo osservato: Sereno Sereno 34 28 1012 vento: Nord S/SE 13
30 Agosto 2026 20:15 tempo osservato: Sereno Sereno 35 26 1012 vento: Nord S/SE 14.8
30 Agosto 2026 19:55 tempo osservato: Sereno Sereno 36 25 1012 vento: Nord S/SE 16.7
30 Agosto 2026 19:35 tempo osservato: Sereno Sereno 37 23 1011 vento: Nord S/SE 22.2
30 Agosto 2026 19:15 tempo osservato: Sereno Sereno 38 22 1011 vento: Nord S/SE 22.2
30 Agosto 2026 18:55 tempo osservato: Sereno Sereno 38 22 1011 vento: Nord SE 18.5
30 Agosto 2026 18:35 tempo osservato: Sereno Sereno 39 21 1012 vento: Nord S/SE 22.2
30 Agosto 2026 18:15 tempo osservato: Sereno Sereno 39 21 1012 vento: Nord S 18.5
30 Agosto 2026 17:55 tempo osservato: Sereno Sereno 39 21 1012 vento: Nord S 24
30 Agosto 2026 17:35 tempo osservato: Sereno Sereno 39 22 1012 vento: Nord S 20.3
30 Agosto 2026 17:15 tempo osservato: Sereno Sereno 39 22 1012 vento: Nord S 14.8
30 Agosto 2026 16:55 tempo osservato: Sereno Sereno 39 22 1012 vento: Nord S 14.8
30 Agosto 2026 16:35 tempo osservato: Sereno Sereno 39 22 1012 vento: Nord S 22.2
30 Agosto 2026 16:15 tempo osservato: Sereno Sereno 39 22 1012 vento: Nord S/SE 16.7
30 Agosto 2026 15:55 tempo osservato: Sereno Sereno 39 24 1012 vento: Nord SE 22.2
30 Agosto 2026 15:35 tempo osservato: Sereno Sereno 39 22 1013 vento: Nord S 14.8
30 Agosto 2026 15:15 tempo osservato: Sereno Sereno 38 24 1014 vento: Nord SO 14.8
30 Agosto 2026 14:55 tempo osservato: Sereno Sereno 39 24 1014 vento: Nord S/SO 18.5
30 Agosto 2026 14:35 tempo osservato: Sereno Sereno 38 25 1014 vento: Nord S/SO 16.7
30 Agosto 2026 14:15 tempo osservato: Sereno Sereno 38 27 1014 vento: Nord S 14.8
30 Agosto 2026 13:55 tempo osservato: Sereno Sereno 37 28 1014 vento: Nord S 22.2
30 Agosto 2026 13:35 tempo osservato: Sereno Sereno 37 28 1015 vento: Nord S/SO 13
30 Agosto 2026 13:15 tempo osservato: Sereno Sereno 36 32 1015 vento: Nord S 20.3
30 Agosto 2026 12:55 tempo osservato: Sereno Sereno 36 32 1015 vento: Nord SO 14.8
30 Agosto 2026 12:35 tempo osservato: Sereno Sereno 36 32 1016 vento: Nord S 14.8
30 Agosto 2026 12:15 tempo osservato: Sereno Sereno 35 36 1016 vento: Nord SO 9.3
30 Agosto 2026 11:55 tempo osservato: Sereno Sereno 35 36 1016 vento: Nord S 18.5
30 Agosto 2026 11:35 tempo osservato: Sereno Sereno 35 39 1016 vento: Nord S 22.2
30 Agosto 2026 11:15 tempo osservato: Sereno Sereno 34 41 1017 vento: Nord S/SO 20.3
30 Agosto 2026 10:55 tempo osservato: Sereno Sereno 34 41 1017 vento: Nord S/SO 14.8
30 Agosto 2026 10:35 tempo osservato: Sereno Sereno 33 43 1017 vento: Nord S/SO 22.2
30 Agosto 2026 10:15 tempo osservato: Sereno Sereno 33 43 1017 vento: Nord S/SO 20.3
30 Agosto 2026 09:55 tempo osservato: Sereno Sereno 32 46 1017 vento: Nord S 20.3
30 Agosto 2026 09:35 tempo osservato: Sereno Sereno 31 48 1017 vento: Nord S 14.8
30 Agosto 2026 09:15 tempo osservato: Sereno Sereno 30 51 1017 vento: Nord S 18.5
30 Agosto 2026 08:55 tempo osservato: Sereno Sereno 29 51 1017 vento: Nord S 18.5
30 Agosto 2026 08:35 tempo osservato: Sereno Sereno 28 54 1016 vento: Nord S 16.7
30 Agosto 2026 08:15 tempo osservato: Sereno Sereno 27 57 1016 vento: Nord S 16.7
30 Agosto 2026 07:55 tempo osservato: Sereno Sereno 26 57 1016 vento: Nord S 13
30 Agosto 2026 07:35 tempo osservato: Sereno Sereno 26 57 1016 vento: Nord S 11.1
30 Agosto 2026 07:15 tempo osservato: Sereno Sereno 25 61 1016 vento: Nord N 0
30 Agosto 2026 06:55 tempo osservato: Sereno Sereno 24 64 1015 vento: Nord S/SE 9.3
30 Agosto 2026 06:35 tempo osservato: Sereno Sereno 25 61 1015 vento: Nord S 7.4
30 Agosto 2026 06:15 tempo osservato: Sereno Sereno 24 60 1015 vento: Nord S/SE 11.1
30 Agosto 2026 05:55 tempo osservato: Sereno Sereno 25 57 1015 vento: Nord S/SE 7.4
30 Agosto 2026 05:35 tempo osservato: Sereno Sereno 26 54 1015 vento: Nord N 5.5
30 Agosto 2026 05:15 tempo osservato: Sereno Sereno 25 57 1015 vento: Nord S 9.3
30 Agosto 2026 04:55 tempo osservato: Sereno Sereno 26 54 1015 vento: Nord S 9.3
30 Agosto 2026 04:35 tempo osservato: Sereno Sereno 26 54 1014 vento: Nord S 7.4
30 Agosto 2026 04:15 tempo osservato: Sereno Sereno 26 54 1014 vento: Nord S 9.3
30 Agosto 2026 03:55 tempo osservato: Sereno Sereno 28 48 1014 vento: Nord SE 7.4
30 Agosto 2026 03:35 tempo osservato: Sereno Sereno 28 48 1014 vento: Nord S 9.3
30 Agosto 2026 03:15 tempo osservato: Sereno Sereno 28 45 1014 vento: Nord S 13
30 Agosto 2026 02:55 tempo osservato: Sereno Sereno 28 45 1014 vento: Nord S 13
30 Agosto 2026 02:35 tempo osservato: Sereno Sereno 28 45 1015 vento: Nord S 11.1
30 Agosto 2026 02:15 tempo osservato: Sereno Sereno 27 50 1015 vento: Nord S 11.1
30 Agosto 2026 01:55 tempo osservato: Sereno Sereno 28 48 1015 vento: Nord S 9.3
30 Agosto 2026 01:35 tempo osservato: Sereno Sereno 28 48 1015 vento: Nord S 11.1